Date String (YYYY-MM-DD hh:mm:ss) UTC,Instrument flags,absolute air pressure of the measurement (hPa),sample flow rate (lpm),inlet stack bypass flow (lpm),air temperature of the measurement (°C),ambient temperature measured by the external sensor (°C),aerosol sample conditioner tube jacket temperature (°C),OPC LED temperature (°C),internal box temperature (°C),relative humidity of the measurement (%),span deviation,mass concentration of particles derived from Lorenz-Mie calculation of OPC scattering (μg/m³),mass concentration of particles derived from Lorenz-Mie calculation of OPC scattering (μg/m³),mass concentration of particles derived from Lorenz-Mie calculation of OPC scattering (μg/m³)
DateTimeUTC,F1_M11,P_M11,Q1_M11,Q2_M11,T1_M11,T2_M11,T3_M11,T4_M11,T5_M11,U1_M11,ZSPAN_M11,X0_M11,X2_M11,X1_M11
2023-06-04 02:00:00,SystemResetWarning,0833.0,5.00,000.00,029.8,028.1,000.0,038.2,031.4,28.1,0000.0,0003.89,0002.84,0002.41
2023-06-04 02:01:00,SystemResetWarning,0833.0,5.01,000.00,029.9,028.2,000.0,038.2,031.5,28.1,0000.0,0003.87,0002.80,0002.41
2023-06-04 02:02:00,SystemResetWarning,0833.1,5.00,000.00,029.9,028.3,000.0,038.2,031.5,28.0,0000.0,0003.86,0002.78,0002.41
2023-06-04 02:03:00,SystemResetWarning,0833.0,4.99,000.00,029.9,028.4,000.0,038.2,031.5,27.8,0000.0,0004.02,0002.81,0002.43
2023-06-04 02:04:00,SystemResetWarning,0833.1,5.00,000.00,029.9,028.4,000.0,038.2,031.5,27.8,0000.0,0004.15,0002.86,0002.45
2023-06-04 02:05:00,SystemResetWarning,0833.3,5.00,000.00,029.9,028.5,000.0,038.2,031.6,27.9,0000.0,0004.29,0002.92,0002.48
2023-06-04 02:06:00,SystemResetWarning,0833.1,5.00,000.00,029.9,028.5,000.0,038.3,031.6,27.9,0000.0,0004.49,0002.97,0002.50
2023-06-04 02:07:00,SystemResetWarning,0833.3,5.00,000.00,030.0,028.5,000.0,038.3,031.6,27.8,0000.0,0004.52,0003.01,0002.53
2023-06-04 02:08:00,SystemResetWarning,0833.3,5.00,000.00,030.0,028.6,000.0,038.3,031.6,27.8,0000.0,0004.61,0003.05,0002.55
2023-06-04 02:09:00,SystemResetWarning,0833.3,5.00,000.00,030.0,028.6,000.0,038.3,031.7,27.6,0000.0,0004.70,0003.09,0002.57
2023-06-04 02:10:00,SystemResetWarning,0833.4,5.00,000.00,030.0,028.6,000.0,038.3,031.7,27.4,0000.0,0005.40,0003.13,0002.62
2023-06-04 02:11:00,SystemResetWarning,0833.3,5.00,000.00,030.0,028.6,000.0,038.3,031.7,27.4,0000.0,0005.94,0003.13,0002.65
2023-06-04 02:12:00,SystemResetWarning,0833.3,5.01,000.00,030.1,028.7,000.0,038.3,031.7,27.4,0000.0,0005.89,0003.15,0002.69
2023-06-04 02:13:00,SystemResetWarning,0833.0,5.01,000.00,030.1,028.7,000.0,038.4,031.7,27.6,0000.0,0005.91,0003.18,0002.72
2023-06-04 02:14:00,SystemResetWarning,0833.2,5.00,000.00,030.1,028.7,000.0,038.4,031.8,27.7,0000.0,0005.85,0003.19,0002.73
2023-06-04 02:15:00,SystemResetWarning,0833.1,4.99,000.00,030.1,028.7,000.0,038.4,031.8,27.5,0000.0,0005.76,0003.16,0002.73
2023-06-04 02:16:00,SystemResetWarning,0833.2,4.99,000.00,030.1,028.7,000.0,038.4,031.8,27.4,0000.0,0005.79,0003.17,0002.74
2023-06-04 02:17:00,SystemResetWarning,0833.2,4.99,000.00,030.2,028.8,000.0,038.4,031.8,27.1,0000.0,0005.59,0003.17,0002.74
2023-06-04 02:18:00,SystemResetWarning,0833.2,5.01,000.00,030.2,028.8,000.0,038.4,031.8,27.1,0000.0,0005.51,0003.15,0002.74
2023-06-04 02:19:00,SystemResetWarning,0833.2,5.01,000.00,030.2,028.8,000.0,038.4,031.9,27.2,0000.0,0005.43,0003.13,0002.73
2023-06-04 02:20:00,SystemResetWarning,0833.2,5.00,000.00,030.2,028.8,000.0,038.5,031.9,27.2,0000.0,0005.47,0003.13,0002.74
2023-06-04 02:21:00,SystemResetWarning,0833.2,4.99,000.00,030.2,028.4,000.0,038.5,031.8,27.3,0000.0,0005.00,0003.13,0002.72
2023-06-04 02:22:00,SystemResetWarning,0833.1,5.00,000.00,030.2,026.6,000.0,038.4,031.5,27.6,0000.0,0004.58,0003.13,0002.70
2023-06-04 02:23:00,SystemResetWarning,0833.1,5.00,000.00,030.1,025.7,000.0,038.3,031.3,27.8,0000.0,0004.72,0003.13,0002.68
2023-06-04 02:24:00,SystemResetWarning,0833.2,5.00,000.00,030.0,025.7,000.0,038.3,031.2,28.0,0000.0,0004.68,0003.12,0002.66
2023-06-04 02:25:00,SystemResetWarning,0833.2,5.01,000.00,029.9,026.0,000.0,038.3,031.2,28.2,0000.0,0004.64,0003.10,0002.65
2023-06-04 02:26:00,SystemResetWarning,0833.1,4.99,000.00,029.8,026.3,000.0,038.3,031.2,28.1,0000.0,0004.51,0003.10,0002.64
2023-06-04 02:27:00,SystemResetWarning,0833.2,5.00,000.00,029.8,026.7,000.0,038.2,031.2,28.1,0000.0,0004.46,0003.09,0002.64
2023-06-04 02:28:00,SystemResetWarning,0833.2,5.01,000.00,029.8,027.0,000.0,038.2,031.3,28.1,0000.0,0004.42,0003.07,0002.63
2023-06-04 02:29:00,SystemResetWarning,0833.2,5.01,000.00,029.8,027.3,000.0,038.2,031.3,28.1,0000.0,0004.62,0003.05,0002.62
2023-06-04 02:30:00,SystemResetWarning,0833.2,4.99,000.00,029.8,027.5,000.0,038.2,031.3,28.0,0000.0,0005.38,0003.11,0002.62
2023-06-04 02:31:00,SystemResetWarning,0833.2,5.00,000.00,029.8,027.7,000.0,038.2,031.3,27.9,0000.0,0005.45,0003.10,0002.60
2023-06-04 02:32:00,SystemResetWarning,0833.2,5.01,000.00,029.8,027.8,000.0,038.2,031.4,28.6,0000.0,0005.36,0003.08,0002.59
2023-06-04 02:33:00,SystemResetWarning,0833.2,5.01,000.00,029.8,028.0,000.0,038.2,031.4,29.0,0000.0,0005.14,0003.07,0002.59
2023-06-04 02:34:00,SystemResetWarning,0833.2,5.01,000.00,029.8,028.1,000.0,038.2,031.4,28.7,0000.0,0004.88,0003.00,0002.57
2023-06-04 02:35:00,SystemResetWarning,0833.2,4.99,000.00,029.8,028.2,000.0,038.2,031.4,28.4,0000.0,0004.86,0002.97,0002.56
2023-06-04 02:36:00,SystemResetWarning,0833.2,4.99,000.00,029.8,028.2,000.0,038.2,031.4,28.3,0000.0,0004.93,0002.96,0002.55
2023-06-04 02:37:00,SystemResetWarning,0833.2,5.01,000.00,029.8,028.3,000.0,038.2,031.5,28.1,0000.0,0004.94,0002.97,0002.55
2023-06-04 02:38:00,SystemResetWarning,0833.2,5.01,000.00,029.9,028.3,000.0,038.2,031.5,28.0,0000.0,0004.99,0002.98,0002.56
2023-06-04 02:39:00,SystemResetWarning,0833.2,5.00,000.00,029.9,028.4,000.0,038.2,031.5,27.9,0000.0,0005.05,0003.00,0002.56
2023-06-04 02:40:00,SystemResetWarning,0833.1,4.99,000.00,029.9,028.4,000.0,038.2,031.5,27.8,0000.0,0005.06,0003.03,0002.56
2023-06-04 02:41:00,SystemResetWarning,0833.2,5.00,000.00,029.9,028.4,000.0,038.2,031.6,28.0,0000.0,0004.43,0002.97,0002.55
2023-06-04 02:42:00,SystemResetWarning,0833.2,5.00,000.00,029.9,028.5,000.0,038.2,031.6,27.9,0000.0,0004.22,0002.94,0002.55
2023-06-04 02:43:00,SystemResetWarning,0833.2,5.00,000.00,029.9,028.5,000.0,038.2,031.6,27.8,0000.0,0004.18,0002.92,0002.56
2023-06-04 02:44:00,SystemResetWarning,0833.2,5.00,000.00,030.0,028.5,000.0,038.3,031.6,27.7,0000.0,0004.30,0002.94,0002.58
2023-06-04 02:45:00,SystemResetWarning,0833.2,5.01,000.00,030.0,028.6,000.0,038.3,031.7,27.7,0000.0,0004.39,0002.98,0002.60
2023-06-04 02:46:00,SystemResetWarning,0833.2,5.00,000.00,030.0,028.6,000.0,038.3,031.7,27.7,0000.0,0004.40,0003.00,0002.62
2023-06-04 02:47:00,SystemResetWarning,0833.2,5.00,000.00,030.0,028.6,000.0,038.3,031.7,27.8,0000.0,0004.29,0003.00,0002.63
2023-06-04 02:48:00,SystemResetWarning,0833.2,5.00,000.00,030.0,028.6,000.0,038.3,031.7,27.9,0000.0,0004.39,0003.05,0002.65
2023-06-04 02:49:00,SystemResetWarning,0833.2,4.99,000.00,030.1,028.6,000.0,038.3,031.7,28.0,0000.0,0004.37,0003.03,0002.63
2023-06-04 02:50:00,SystemResetWarning,0833.2,4.99,000.00,030.1,028.7,000.0,038.4,031.7,27.9,0000.0,0004.26,0002.99,0002.62
2023-06-04 02:51:00,SystemResetWarning,0833.2,5.00,000.00,030.1,028.7,000.0,038.4,031.8,28.0,0000.0,0004.09,0002.94,0002.62
2023-06-04 02:52:00,SystemResetWarning,0833.2,5.00,000.00,030.1,028.7,000.0,038.4,031.8,28.1,0000.0,0003.89,0002.97,0002.62
2023-06-04 02:53:00,SystemResetWarning,0833.2,5.00,000.00,030.1,028.7,000.0,038.4,031.7,28.2,0000.0,0004.33,0002.98,0002.62
2023-06-04 02:54:00,SystemResetWarning,0833.2,5.00,000.00,030.1,028.7,000.0,038.4,031.8,28.2,0000.0,0004.90,0003.00,0002.61
2023-06-04 02:55:00,SystemResetWarning,0833.2,5.00,000.00,030.2,028.7,000.0,038.4,031.8,28.3,0000.0,0004.87,0002.98,0002.57
2023-06-04 02:56:00,SystemResetWarning,0833.2,5.00,000.00,030.2,028.7,000.0,038.4,031.8,28.3,0000.0,0004.78,0002.93,0002.54
2023-06-04 02:57:00,SystemResetWarning,0833.2,5.00,000.00,030.2,028.8,000.0,038.5,031.8,28.5,0000.0,0005.15,0002.90,0002.51
2023-06-04 02:58:00,SystemResetWarning,0833.2,4.98,000.00,030.2,028.8,000.0,038.5,031.9,28.4,0000.0,0005.29,0002.86,0002.47
2023-06-04 02:59:00,SystemResetWarning,0833.2,5.03,000.00,030.2,028.8,000.0,038.5,031.9,28.3,0000.0,0005.25,0002.79,0002.43
